Kake, AK

3:09 PM AKST on February 07, 2016 (GMT -0900)
Kake

Weather History for PAFE - October, 2012

Change the Weather History Date:

Friday, October 5, 2012

  Actual Average Record
Temperature  
Mean Temperature 46 °F -  
Max Temperature 51 °F 49 °F 57 °F (2014)
Min Temperature 41 °F 40 °F 32 °F (2015)
Degree Days  
Heating Degree Days 18    
Moisture  
Dew Point 44 °F    
Average Humidity 91    
Maximum Humidity 93    
Minimum Humidity 82    
Precipitation  
Precipitation 0.00 in - - ()
Sea Level Pressure  
Sea Level Pressure 30.52 in    
Wind  
Wind Speed 0 mph (East)    
Max Wind Speed 6 mph    
Max Gust Speed -    
Visibility 6 miles    
Events      
Averages and records for this station are not official NWS values.
T = Trace of Precipitation, MM = Missing Value Source: NWS Daily Summary

Daily Weather History Graph

Daily Weather History Graph

Search for Another Location

Airport or City:

Trip Planner

Search our weather history database for the weather conditions in past years. The results will help you decide how hot, cold, wet, or windy it might be!

Date:

Astronomy

Oct. 05, 2012 Rise Set
Actual Time 7:08 AM AKDT 6:17 PM AKDT
Civil Twilight 6:30 AM AKDT 6:55 PM AKDT
Nautical Twilight 5:46 AM AKDT 7:39 PM AKDT
Astronomical Twilight 5:01 AM AKDT 8:24 PM AKDT
Moon 8:49 PM AKDT (10/5) 1:21 PM AKDT (10/5)
Length of Visible Light 12h 24m
Length of Day
11h 08m
Waning Gibbous, 73% of the Moon is Illuminated
Oct 5
Waning Gibbous
Oct 7
Last Quarter
Oct 15
New
Oct 21
First Quarter
Oct 29
Full

Hourly Weather History & Observations

Time (AKDT) Temp. Windchill Dew Point Humidity Pressure Visibility Wind Dir Wind Speed Gust Speed Precip Events Conditions
12:16 AM 46.4 °F - 44.6 °F 93% 30.55 in 0.8 mi Calm Calm - N/A   Overcast
12:36 AM 46.4 °F - 44.6 °F 93% 30.54 in 0.8 mi Calm Calm - N/A   Overcast
12:56 AM 46.4 °F - 44.6 °F 93% 30.55 in 0.5 mi Calm Calm - N/A   Overcast
1:16 AM 46.4 °F - 44.6 °F 93% 30.54 in 0.8 mi Calm Calm - N/A   Overcast
1:36 AM 46.4 °F - 44.6 °F 93% 30.54 in 1.8 mi Calm Calm - N/A   Overcast
2:16 AM 46.4 °F - 44.6 °F 93% 30.55 in 0.5 mi Calm Calm - N/A   Overcast
2:36 AM 46.4 °F - 44.6 °F 93% 30.55 in 0.8 mi Calm Calm - N/A   Overcast
2:56 AM 46.4 °F - 44.6 °F 93% 30.55 in 0.5 mi Calm Calm - N/A   Overcast
3:16 AM 46.4 °F - 44.6 °F 93% 30.54 in 0.2 mi Calm Calm - N/A   Overcast
3:36 AM 46.4 °F - 44.6 °F 93% 30.54 in 0.5 mi Calm Calm - N/A   Overcast
3:56 AM 46.4 °F - 42.8 °F 87% 30.54 in 0.8 mi Calm Calm - N/A   Overcast
4:16 AM 44.6 °F - 42.8 °F 93% 30.54 in 0.8 mi Calm Calm - N/A   Overcast
4:36 AM 44.6 °F - 42.8 °F 93% 30.54 in 0.5 mi Calm Calm - N/A   Overcast
4:56 AM 44.6 °F - 42.8 °F 93% 30.54 in 0.5 mi Calm Calm - N/A   Overcast
5:16 AM 44.6 °F - 42.8 °F 93% 30.53 in 7.0 mi Calm Calm - N/A   Overcast
5:36 AM 46.4 °F - 44.6 °F 93% 30.53 in 0.8 mi Calm Calm - N/A   Overcast
5:56 AM 46.4 °F - 42.8 °F 87% 30.53 in 0.5 mi Calm Calm - N/A   Overcast
6:16 AM 46.4 °F - 44.6 °F 93% 30.53 in 0.2 mi Calm Calm - N/A   Overcast
6:36 AM 46.4 °F - 42.8 °F 87% 30.53 in 0.2 mi Calm Calm - N/A   Overcast
6:56 AM 46.4 °F - 44.6 °F 93% 30.53 in 0.2 mi Calm Calm - N/A   Overcast
7:16 AM 46.4 °F - 44.6 °F 93% 30.53 in 0.2 mi Calm Calm - N/A   Overcast
7:36 AM 46.4 °F - 42.8 °F 87% 30.54 in 0.2 mi Calm Calm - N/A   Overcast
7:56 AM 46.4 °F - 44.6 °F 93% 30.54 in 0.2 mi Calm Calm - N/A   Overcast
8:16 AM 46.4 °F - 44.6 °F 93% 30.54 in 0.2 mi Calm Calm - N/A   Overcast
8:36 AM 46.4 °F - 44.6 °F 93% 30.54 in 0.2 mi Calm Calm - N/A   Overcast
8:56 AM 46.4 °F - 44.6 °F 93% 30.54 in 0.2 mi Calm Calm - N/A   Overcast
9:16 AM 46.4 °F - 44.6 °F 93% 30.54 in 0.5 mi Calm Calm - N/A   Overcast
9:36 AM 46.4 °F - 44.6 °F 93% 30.54 in 2.0 mi Calm Calm - N/A   Overcast
9:56 AM 46.4 °F - 44.6 °F 93% 30.54 in 10.0 mi Calm Calm - N/A   Overcast
10:36 AM 46.4 °F - 44.6 °F 93% 30.54 in 10.0 mi Calm Calm - N/A   Overcast
10:56 AM 46.4 °F - 44.6 °F 93% 30.54 in 10.0 mi Calm Calm - N/A   Overcast
11:16 AM 46.4 °F - 44.6 °F 93% 30.54 in 10.0 mi Calm Calm - N/A   Overcast
11:36 AM 46.4 °F - 44.6 °F 93% 30.54 in 10.0 mi Calm Calm - N/A   Overcast
11:56 AM 46.4 °F - 44.6 °F 93% 30.54 in 10.0 mi Calm Calm - N/A   Overcast
12:16 PM 46.4 °F - 44.6 °F 93% 30.54 in 10.0 mi Calm Calm - N/A   Overcast
12:36 PM 46.4 °F - 44.6 °F 93% 30.54 in 10.0 mi Calm Calm - N/A   Overcast
12:56 PM 48.2 °F - 44.6 °F 87% 30.53 in 10.0 mi Calm Calm - N/A   Overcast
1:16 PM 48.2 °F - 44.6 °F 87% 30.53 in 10.0 mi Calm Calm - N/A   Overcast
1:36 PM 46.4 °F - 44.6 °F 93% 30.53 in 10.0 mi Calm Calm - N/A   Overcast
1:56 PM 48.2 °F - 44.6 °F 87% 30.53 in 10.0 mi WSW 3.5 mph - N/A   Overcast
2:16 PM 48.2 °F - 44.6 °F 87% 30.53 in 10.0 mi SW 3.5 mph - N/A   Overcast
2:36 PM 48.2 °F - 46.4 °F 93% 30.53 in 10.0 mi Calm Calm - N/A   Overcast
2:56 PM 48.2 °F - 44.6 °F 87% 30.53 in 10.0 mi SSW 3.5 mph - N/A   Overcast
3:16 PM 48.2 °F - 44.6 °F 87% 30.52 in 10.0 mi Calm Calm - N/A   Overcast
3:36 PM 48.2 °F - 44.6 °F 87% 30.52 in 10.0 mi Calm Calm - N/A   Overcast
3:56 PM 48.2 °F - 46.4 °F 93% 30.51 in 10.0 mi Calm Calm - N/A   Overcast
4:16 PM 48.2 °F - 46.4 °F 93% 30.51 in 10.0 mi Calm Calm - N/A   Overcast
4:36 PM 48.2 °F - 44.6 °F 87% 30.50 in 10.0 mi Calm Calm - N/A   Overcast
4:56 PM 48.2 °F - 46.4 °F 93% 30.50 in 10.0 mi Calm Calm - N/A   Overcast
5:16 PM 51.8 °F - 48.2 °F 88% 30.50 in 10.0 mi North 4.6 mph - N/A   Overcast
5:36 PM 51.8 °F - 46.4 °F 82% 30.49 in 10.0 mi Calm Calm - N/A   Overcast
5:56 PM 48.2 °F - 44.6 °F 87% 30.49 in 10.0 mi Calm Calm - N/A   Mostly Cloudy
6:16 PM 48.2 °F - 44.6 °F 87% 30.49 in 10.0 mi Calm Calm - N/A   Scattered Clouds
6:36 PM 46.4 °F - 44.6 °F 93% 30.49 in 10.0 mi Calm Calm - N/A   Clear
6:56 PM 46.4 °F - 44.6 °F 93% 30.49 in 10.0 mi Calm Calm - N/A   Clear
7:36 PM 46.4 °F - 42.8 °F 87% 30.49 in 10.0 mi Calm Calm - N/A   Clear
7:56 PM 46.4 °F - 42.8 °F 87% 30.49 in 10.0 mi Calm Calm - N/A   Clear
8:16 PM 46.4 °F - 42.8 °F 87% 30.49 in 10.0 mi Calm Calm - N/A   Clear
8:36 PM 44.6 °F - 42.8 °F 93% 30.48 in 10.0 mi Calm Calm - N/A   Clear
8:56 PM 42.8 °F - 41.0 °F 93% 30.48 in 10.0 mi Calm Calm - N/A   Clear
9:16 PM 42.8 °F 40.1 °F 41.0 °F 93% 30.48 in 10.0 mi East 4.6 mph - N/A   Clear
9:36 PM 42.8 °F 39.3 °F 39.2 °F 87% 30.48 in 9.0 mi East 5.8 mph - N/A   Clear
9:56 PM 42.8 °F 40.1 °F 39.2 °F 87% 30.47 in 10.0 mi East 4.6 mph - N/A   Clear
10:16 PM 42.8 °F - 41.0 °F 93% 30.47 in 10.0 mi Calm Calm - N/A   Clear
10:36 PM 42.8 °F - 41.0 °F 93% 30.47 in 6.0 mi Calm Calm - N/A   Clear
10:56 PM 42.8 °F - 41.0 °F 93% 30.47 in 1.0 mi Calm Calm - N/A   Overcast
11:16 PM 42.8 °F 39.3 °F 39.2 °F 87% 30.46 in 2.0 mi ENE 5.8 mph - N/A   Overcast
11:36 PM 42.8 °F 39.3 °F 39.2 °F 87% 30.46 in 3.0 mi ENE 5.8 mph - N/A   Mostly Cloudy
11:56 PM 41.0 °F 38.0 °F 39.2 °F 93% 30.47 in 10.0 mi ENE 4.6 mph - N/A   Scattered Clouds